Location: ?????
(32.7281°N, 34.9563°E)
Time: 16:58:50
(UTC+00:00)

Cosmos 1553 Rocket - Pass Details

Date: 29 October 2020
Orbit: 940 x 1009 km, 82.9° (Epoch: 29 November)

Event Time Altitude Azimuth Distance (km) Brightness Sun altitude
Rises 15:52:19 0° 189° (S) 3,717 7.3 -13.3°
Reaches altitude 10° 15:54:51 10° 190° (S) 2,765 6.6 -13.8°
Maximum altitude 16:01:13 76° 276° (W) 1,025 4.2 -15.1°
Drops below altitude 10° 16:07:31 10° 2° (N) 2,741 6.3 -16.5°
Sets 16:10:02 0° 4° (N) 3,682 6.9 -17.0°
